Content
SEND FEEDBACK

Daily
Averages
Monthly
Summary
Canada

BIBLE HILL, NOVA SCOTIA


Home > North America > Canada > Nova Scotia
Elevation: 131 feet     Latitude: 45 22N     Longitude: 063 16W

WEATHER
 
SELECT A DAY
Number of Records: 97,390;   Date Range: 6/19/04 - 9/8/14
 
SHARE

PRINT THIS DATA

[ ← Previous Day ]
WEATHER ALMANAC - JULY 30, 2014
[ Next Day → ]
[ °C ]   °F
Weather ElementAverageHighLow
Temperature66.6 °F80.1 °F (3:00 pm)57.4 °F (7:00 am)
Dewpoint59.4 °F65.1 °F (6:00 pm)52.7 °F (7:00 am)
Humidity77.9 %93 % (5:00 am)43 % (3:00 pm)
Barometer30.07 in30.11 in (12:00 pm)29.98 in (1:00 am)
Wind Speed5.2 mph10.4 mph (2:00 pm)
Weather ElementAverage
Wind DirectionSSW (194.4 °)

Weather ElementTotal
Precipitation0.11 in
Cooling Degree Days3.8 (Base 65)
Growing Degree Days18.8 (Base 50)
Averaged from 25 records on July 30, 2014
WEATHER CONDITIONS BREAKOUT
WIND DIRECTION BREAKOUT
WEATHER BY HOUR - JULY 30, 2014
[ °C ]   °F
Local TimeTemperatureDewpointHumidityBarometerVisibilityWind DirectionWind SpeedGust SpeedPrecipitationEventsConditions
1:00 AM61.5 °F57.7 °F87 %29.98 inWSW (250°)1.2 mph
3:00 AM60.0 °F56.0 °F81 %30.01 inWSW (250°)4.6 mph
3:00 AM59.5 °F55.6 °F87 %30.01 inWSW (250°)4.6 mph
4:00 AM58.8 °F55.2 °F88 %30.03 inWest (280°)1.2 mph
5:00 AM58.1 °F56.1 °F93 %30.03 inWSW (250°)1.2 mph
6:00 AM58.3 °F55.9 °F92 %30.06 inNW (310°)1.2 mph
7:00 AM57.4 °F52.7 °F84 %30.06 inNE (40°)1.2 mph
8:00 AM59.7 °F55.0 °F84 %30.07 inSW (220°)2.3 mph
9:00 AM60.0 °F54.0 °F74 %30.08 inSouth (190°)4.6 mph
9:00 AM59.7 °F53.8 °F81 %30.08 inSouth (190°)4.6 mph
10:00 AM67.8 °F59.9 °F76 %30.09 inSouth (190°)4.6 mph
11:00 AM71.4 °F60.1 °F67 %30.09 inSSW (210°)4.6 mph
12:00 PM73.8 °F60.8 °F64 %30.11 inSSE (150°)4.6 mph
1:00 PM75.6 °F61.3 °F61 %30.10 inSE (140°)8.1 mph
2:00 PM77.0 °F60.6 °F57 %30.09 inSouth (180°)10.4 mph
3:00 PM80.0 °F62.0 °F43 %30.08 inSouth (180°)9.2 mph
3:00 PM80.1 °F61.5 °F53 %30.08 inSouth (180°)9.2 mph
4:00 PM75.4 °F61.5 °F62 %30.08 inSouth (170°)10.4 mph
5:00 PM70.7 °F62.1 °F74 %30.08 inSSW (200°)6.9 mph
6:00 PM70.2 °F65.1 °F84 %30.07 inSSW (200°)2.3 mph0.01 in
7:00 PM67.1 °F64.8 °F92 %30.09 inSSE (150°)4.6 mph0.10 in
8:00 PM66.9 °F64.4 °F92 %30.09 inSouth (170°)8.1 mph
9:00 PM66.0 °F63.0 °F87 %30.11 inSouth (180°)8.1 mph
9:00 PM65.7 °F63.1 °F92 %30.11 inSouth (180°)8.1 mph
10:00 PM64.2 °F61.9 °F92 %30.10 inSSE (150°)4.6 mph
Hourly data recorded from CZDB, located miles away from Bible Hill, Nova Scotia







STORIES FROM OUR PARTNERS